Weather History for KHYR - July, 2013

Change the Weather History Date:

Friday, July 5, 2013

  Actual Average Record
Temperature  
Mean Temperature 78 °F -  
Max Temperature 87 °F 76 °F 91 °F (2012)
Min Temperature 69 °F 41 °F 36 °F (2001)
Cooling Degree Days 12    
Growing Degree Days 28 (Base 50)    
Moisture  
Dew Point 58 °F    
Average Humidity 51    
Maximum Humidity 71    
Minimum Humidity 37    
Precipitation  
Precipitation 0.00 in - - ()
Sea Level Pressure  
Sea Level Pressure 29.89 in    
Wind  
Wind Speed 7 mph (South)    
Max Wind Speed 16 mph    
Max Gust Speed 26 mph    
Visibility 10 miles    
Events      
Averages and records for this station are not official NWS values.
T = Trace of Precipitation, MM = Missing Value Source: NWS Daily Summary

Daily Weather History Graph

Daily Weather History Graph

Search for Another Location

Airport or City:

Trip Planner

Search our weather history database for the weather conditions in past years. The results will help you decide how hot, cold, wet, or windy it might be!

Date:

Astronomy

Jul. 05, 2013 Rise Set
Actual Time 5:21 AM CDT 8:58 PM CDT
Civil Twilight 4:43 AM CDT 9:36 PM CDT
Nautical Twilight 3:52 AM CDT 10:27 PM CDT
Astronomical Twilight 2:44 AM CDT 11:35 PM CDT
Moon 3:24 AM CDT (7/5) 6:51 PM CDT (7/5)
Length of Visible Light 16h 53m
Length of Day
15h 37m
Waning Crescent, 6% of the Moon is Illuminated
Jul 5
Waning Crescent
Jul 8
New
Jul 15
First Quarter
Jul 22
Full
Jul 29
Last Quarter

Hourly Weather History & Observations

Time (CDT) Temp. Heat Index Dew Point Humidity Pressure Visibility Wind Dir Wind Speed Gust Speed Precip Events Conditions
12:53 AM 70.0 °F - 60.1 °F 71% 29.92 in 10.0 mi South 3.5 mph - N/A   Partly Cloudy
1:53 AM 70.0 °F - 57.9 °F 65% 29.92 in 10.0 mi South 4.6 mph - N/A   Scattered Clouds
2:53 AM 72.0 °F - 57.0 °F 59% 29.92 in 10.0 mi SSW 8.1 mph - N/A   Mostly Cloudy
3:53 AM 71.1 °F - 57.0 °F 61% 29.92 in 10.0 mi Variable 4.6 mph - N/A   Mostly Cloudy
4:53 AM 70.0 °F - 57.0 °F 63% 29.93 in 10.0 mi SSW 5.8 mph - N/A   Mostly Cloudy
5:53 AM 69.1 °F - 57.0 °F 65% 29.94 in 10.0 mi Calm Calm - N/A   Clear
6:53 AM 70.0 °F - 57.0 °F 63% 29.93 in 10.0 mi Variable 5.8 mph - N/A   Clear
7:53 AM 72.0 °F - 57.0 °F 59% 29.94 in 10.0 mi South 10.4 mph - N/A   Clear
8:53 AM 75.9 °F - 57.9 °F 54% 29.93 in 10.0 mi South 8.1 mph - N/A   Clear
9:53 AM 78.1 °F - 57.9 °F 50% 29.93 in 10.0 mi South 11.5 mph 19.6 mph N/A   Clear
10:53 AM 81.0 °F 81.1 °F 57.9 °F 45% 29.92 in 10.0 mi South 13.8 mph 19.6 mph N/A   Clear
11:53 AM 82.9 °F 82.4 °F 57.0 °F 41% 29.91 in 10.0 mi South 12.7 mph 21.9 mph N/A   Clear
12:53 PM 84.0 °F 83.0 °F 55.9 °F 38% 29.88 in 10.0 mi SSW 11.5 mph 26.5 mph N/A   Clear
1:53 PM 84.9 °F 83.9 °F 57.0 °F 38% 29.88 in 10.0 mi SSW 9.2 mph 24.2 mph N/A   Scattered Clouds
2:53 PM 86.0 °F 85.0 °F 57.9 °F 38% 29.87 in 10.0 mi South 16.1 mph 20.7 mph N/A   Clear
3:53 PM 86.0 °F 84.9 °F 57.0 °F 37% 29.86 in 10.0 mi South 11.5 mph 26.5 mph N/A   Clear
4:53 PM 84.0 °F 83.5 °F 57.9 °F 41% 29.86 in 10.0 mi SSW 11.5 mph 20.7 mph N/A   Clear
5:53 PM 82.0 °F 82.4 °F 60.1 °F 47% 29.85 in 10.0 mi South 10.4 mph - N/A   Overcast
6:53 PM 82.0 °F 82.4 °F 60.1 °F 47% 29.84 in 10.0 mi Variable 6.9 mph - N/A   Scattered Clouds
7:53 PM 80.1 °F 80.7 °F 59.0 °F 48% 29.85 in 10.0 mi South 9.2 mph 17.3 mph N/A   Clear
8:53 PM 79.0 °F - 57.9 °F 48% 29.85 in 10.0 mi Variable 5.8 mph 17.3 mph N/A   Mostly Cloudy
9:53 PM 78.1 °F - 57.0 °F 48% 29.85 in 10.0 mi South 6.9 mph - N/A   Clear
10:53 PM 77.0 °F - 57.9 °F 52% 29.86 in 10.0 mi South 8.1 mph - N/A   Clear
11:53 PM 75.9 °F - 57.9 °F 54% 29.87 in 10.0 mi South 5.8 mph - N/A   Clear